STARLINK-1480, 45741

Orbit data source: Space-Track

STARLINK-1480, 45741 is a payload satellite owned by SpaceX/Seattle (US) in LEO that was launched on Sat, 13 Jun 2020 UTC via an FALCON 9 launch vehicle from the Air Force Eastern Test Range (AFETR). Payload-class satellites include a variety of spacecraft equipped with specific instruments for various scientific and technological missions. These include communications satellites like Starlink; space stations such as the ISS; scientific satellites like the Hubble; Earth observation satellites from companies like Planet Labs, Umbra, and HawkEye 360; GPS; miniature CubeSats for education and research; and military/defense satellites.

Not visible in the next 10 days
Identifier
45741, 2020-038M
Orbit
LEO
Country
Flag of USUS
Related business
Manufacturer
SpaceX/Seattle
Mission
Partially operational Commercial Communications
Bus & Motor
STARLINK, Unknown motor
Mass
260 kg wet, ~248 kg dry
Launch date (UTC)
2020-06-13 (6 years ago)
Launch vehicle
FALCON 9
Launch site
Air Force Eastern Test Range (AFETR)
Object type
Payload
Rocket body
Debris
Shape & HBR
Box + 1 Pan, 10.1 m
Radar Cross Section
13.562 m², Large (>1 m²)

Expand to show TLE details & history
Last TLE update: 13 hours ago

TLE from 13 hours ago
0 STARLINK-1480
1 45741U 20038M   26255.64450454  .00076283  00000-0  47778-3 0  9998
2 45741  53.0474  20.3670 0004105 342.8000  17.2879 15.76145311345742
Epoch: 2026-09-12T15:28Z
TLE epoch observation values (Epoch: 2026-09-12T15:28:05.192Z)
Latitude
-0.00005°
Longitude
156.69479°
Altitude
339.646 km
Speed
7.708 km/s
True Right ascension
01h 21m 28s
True Declination
0° 00' 00"
Sunlit
Object was in full shadow at epoch
Visualization orbit readout
Latitude
Unknown
Longitude
Unknown
Altitude
Unknown
Speed
Unknown
Apparent Right ascension
Unknown
Apparent Declination
Unknown
Sunlit
N/A
Visualization observer readout
Local Sidereal Time
21:11:37
Azimuth
Unknown
Elevation
Unknown
Doppler factor
Unknown
Orbital elements
Apogee altitude
344.412 km
Perigee altitude
338.895 km
Semi-major axis
6,719.791 km
Eccentricity
0.00041
Inclination
53.0474°
RAAN
20.367°
Arg. of periapsis
342.8°
True anomaly
17.30189°
Mean anomaly
17.2879°
Eccentric anomaly
17.29489°
Mean motion
3.94012 °/min
Orbital period
91.37 mins
BSTAR
0.00047778
Loading maneuver chart data...
Computing Atmospheric mass density...

Documentation

Showing up to 5 results
|